Greenville, AL

8:24 AM CDT on August 22, 2017 (GMT -0500)
Greenville Municipal

Weather History for KPRN - April, 2014

Change the Weather History Date:

Saturday, April 12, 2014

  Actual Average Record
Temperature  
Mean Temperature 66 °F -  
Max Temperature 82 °F 77 °F 88 °F (1954)
Min Temperature 50 °F 49 °F 35 °F (1973)
Growing Degree Days 16 (Base 50)    
Moisture  
Dew Point 51 °F    
Average Humidity 62    
Maximum Humidity 89    
Minimum Humidity 32    
Precipitation  
Precipitation 0.00 in - - ()
Sea Level Pressure  
Sea Level Pressure 30.13 in    
Wind  
Wind Speed 2 mph (SSW)    
Max Wind Speed 9 mph    
Max Gust Speed -    
Visibility 9 miles    
Events      
Averages and records for this station are not official NWS values.
T = Trace of Precipitation, MM = Missing Value Source: NWS Daily Summary

Daily Weather History Graph

Daily Weather History Graph

Search for Another Location

Airport or City:

Trip Planner

Search our weather history database for the weather conditions in past years. The results will help you decide how hot, cold, wet, or windy it might be!

Date:

Astronomy

Apr. 12, 2014 Rise Set
Actual Time 6:21 AM CDT 7:13 PM CDT
Civil Twilight 5:56 AM CDT 7:38 PM CDT
Nautical Twilight 5:26 AM CDT 8:07 PM CDT
Astronomical Twilight 4:56 AM CDT 8:38 PM CDT
Moon 4:59 PM CDT (4/12) 4:38 AM CDT (4/12)
Length of Visible Light 13h 42m
Length of Day
12h 52m
Waxing Gibbous, 93% of the Moon is Illuminated
Apr 12
Waxing Gibbous
Apr 15
Full
Apr 22
Last Quarter
Apr 29
New
May 6
First Quarter

Hourly Weather History & Observations

Time (CDT) Temp. Dew Point Humidity Pressure Visibility Wind Dir Wind Speed Gust Speed Precip Events Conditions
12:56 AM 57.9 °F 54.0 °F 87% 30.16 in 10.0 mi Calm Calm - N/A   Clear
1:56 AM 55.0 °F 52.0 °F 89% 30.15 in 9.0 mi Calm Calm - N/A   Clear
2:56 AM 53.1 °F 50.0 °F 89% 30.14 in 9.0 mi Calm Calm - N/A   Clear
3:56 AM 52.0 °F 48.9 °F 89% 30.15 in 8.0 mi Calm Calm - N/A   Clear
4:56 AM 51.1 °F 48.0 °F 89% 30.16 in 9.0 mi Calm Calm - N/A   Clear
5:56 AM 50.0 °F 46.9 °F 89% 30.16 in 9.0 mi Calm Calm - N/A   Clear
6:10 AM 50.0 °F 46.4 °F 87% 30.17 in 8.0 mi Calm Calm - N/A   Partly Cloudy
6:56 AM 50.0 °F 46.9 °F 89% 30.17 in 7.0 mi Calm Calm - N/A   Clear
7:56 AM 57.9 °F 54.0 °F 87% 30.18 in 7.0 mi Calm Calm - N/A   Clear
8:56 AM 64.9 °F 57.0 °F 75% 30.19 in 10.0 mi Calm Calm - N/A   Clear
9:56 AM 72.0 °F 55.0 °F 55% 30.19 in 10.0 mi SSW 4.6 mph - N/A   Clear
10:56 AM 73.9 °F 54.0 °F 50% 30.19 in 10.0 mi Variable 6.9 mph - N/A   Clear
11:56 AM 75.0 °F 52.0 °F 44% 30.17 in 10.0 mi South 8.1 mph - N/A   Clear
12:56 PM 78.1 °F 54.0 °F 43% 30.14 in 10.0 mi West 8.1 mph - N/A   Clear
1:56 PM 78.1 °F 50.0 °F 37% 30.13 in 10.0 mi Variable 6.9 mph - N/A   Clear
2:56 PM 81.0 °F 51.1 °F 35% 30.10 in 10.0 mi Variable 4.6 mph - N/A   Clear
3:56 PM 80.1 °F 48.0 °F 32% 30.08 in 10.0 mi South 9.2 mph - N/A   Clear
4:56 PM 81.0 °F 50.0 °F 34% 30.07 in 10.0 mi Variable 4.6 mph - N/A   Clear
5:56 PM 80.1 °F 48.9 °F 34% 30.06 in 10.0 mi South 8.1 mph - N/A   Clear
6:56 PM 78.1 °F 50.0 °F 37% 30.07 in 10.0 mi Calm Calm - N/A   Clear
7:56 PM 72.0 °F 52.0 °F 49% 30.07 in 10.0 mi South 5.8 mph - N/A   Clear
8:56 PM 70.0 °F 50.0 °F 49% 30.08 in 10.0 mi SSW 4.6 mph - N/A   Clear
9:56 PM 66.0 °F 52.0 °F 60% 30.09 in 10.0 mi South 3.5 mph - N/A   Clear
10:56 PM 64.9 °F 52.0 °F 63% 30.10 in 10.0 mi Calm Calm - N/A   Clear
11:56 PM 63.0 °F 52.0 °F 67% 30.10 in 10.0 mi South 3.5 mph - N/A   Clear